Regional Weather Roundup
Issued by NWS Little Rock, AR

Home | Current Version | Previous Version | Graphics & Text | Print | Product List | Glossary On
Versions: 1 2 3 4 5 6 7 8 9 10 11 12 13 14 15 16 17 18 19 20 21 22 23 24 25 26 27 28 29 30 31 32 33 34 35 36 37 38 39 40 41 42 43 44 45 46 47 48 49 50
000
ASUS44 KLZK 202305
RWRLZK

WEATHER ROUNDUP FOR ARKANSAS
NATIONAL WEATHER SERVICE LITTLE ROCK AR
600 PM CDT MON APR 20 2015

NOTE: "FAIR" INDICATES FEW OR NO CLOUDS BELOW 12,000 FEET WITH NO
SIGNIFICANT WEATHER AND/OR OBSTRUCTIONS TO VISIBILITY.

ARZ001-003-010-029-210000-
NORTHWEST ARKANSAS

CITY           SKY/WX    TMP DP  RH WIND       PRES   REMARKS
FAYETTEVILLE   SUNNY     58  32  37 NW10G21   29.93R
FORT SMITH     SUNNY     66  28  24 NW16      29.92S
HARRISON       SUNNY     58  27  30 NW13G23   29.90R
BENTONVILLE    SUNNY     59  28  31 NW17      29.93S
ROGERS         MOSUNNY   58  30  34 NW12G24   29.93R
SILOAM SPGS    MOSUNNY   59  34  38 NW12G18   29.95R
HIGHFILL       SUNNY     60  31  33 NW12      29.92R
SPRINGDALE     MOSUNNY   59  30  33 NW9G21    29.94R
$$

ARZ004-005-016-210000-
NORTH CENTRAL ARKANSAS

CITY           SKY/WX    TMP DP  RH WIND       PRES   REMARKS
BATESVILLE     SUNNY     64  30  27 W9G18     29.85R
FLIPPIN        SUNNY     63 N/A N/A W15G23    29.87R
MTN HOME       MOSUNNY   60  28  29 W8G20     29.87R
$$

ARZ040-041-210000-
WEST CENTRAL ARKANSAS

CITY           SKY/WX    TMP DP  RH WIND       PRES   REMARKS
MENA           SUNNY     64  32  29 NW9       29.94R
MOUNT IDA      SUNNY     66  34  30 VRB7      29.89R
$$

ARZ009-017-025-026-028-210000-
NORTHEAST ARKANSAS

CITY           SKY/WX    TMP DP  RH WIND       PRES   REMARKS
CORNING          N/A     63  37  39 W16       29.83R
JONESBORO      SUNNY     63  36  36 W17G29    29.83R
NEWPORT        SUNNY     67  35  30 W16       29.85R
WALNUT RIDGE   SUNNY     64  34  32 W21       29.83R
BLYTHEVILLE    MOSUNNY   64  40  41 W12G24    29.82R
$$

ARZ022-023-033-042-044-210000-
CENTRAL ARKANSAS

CITY           SKY/WX    TMP DP  RH WIND       PRES   REMARKS
LITTLE ROCK    SUNNY     68  31  25 W14G21    29.87S
N LITTLE ROCK  SUNNY     66  37  33 W8G18     29.87S
JACKSONVILLE   SUNNY     68  35  29 W12       29.86R
SEARCY         SUNNY     68  35  29 W8G16     29.86R
HOT SPRINGS    SUNNY     67  33  28 NW12G21   29.90R
RUSSELLVILLE   SUNNY     66  30  26 W18       29.89R
CLINTON        FAIR      66  32  28 NW13      29.87R
$$

ARZ036-210000-
EAST ARKANSAS

CITY           SKY/WX    TMP DP  RH WIND       PRES   REMARKS
WEST MEMPHIS   SUNNY     65  42  43 NW6       29.84R
$$

ARZ050-053-066-070-073-210000-
SOUTHWEST ARKANSAS

CITY           SKY/WX    TMP DP  RH WIND       PRES   REMARKS
ARKADELPHIA    FAIR      69  39  33 W8        29.90S
CAMDEN         SUNNY     72  32  23 E7        29.90S
TEXARKANA      SUNNY     69  35  28 NW10      29.92S
EL DORADO      SUNNY     70  35  27 NW10      29.91S
DE QUEEN       SUNNY     68  34  28 NW10G17   29.90S
$$

ARZ056-057-069-210000-
SOUTHEAST ARKANSAS

CITY           SKY/WX    TMP DP  RH WIND       PRES   REMARKS
PINE BLUFF     SUNNY     68  37  32 SW10      29.88R
STUTTGART      SUNNY     66  37  34 W15       29.88R
MONTICELLO     SUNNY     69  35  28 W8        29.88R

$$





USA.gov is the U.S. government's official web portal to all federal, state and local government web resources and services.